Time,TemperatureF,DewpointF,PressureIn,WindDirection,WindDirectionDegrees,WindSpeedMPH,WindSpeedGustMPH,Humidity,HourlyPrecipIn,Conditions,Clouds,dailyrainin,SoftwareType,DateUTC
2013-01-22 00:00:00,45.6,20.7,29.80,WNW,293,0.0,0.0,37,0.00,,,0.00,WUHU216HW,2013-01-22 05:00:00,
2013-01-22 00:01:00,45.6,20.7,29.80,WNW,293,0.0,0.0,37,0.00,,,0.00,WUHU216HW,2013-01-22 05:01:00,
2013-01-22 00:09:00,45.6,20.7,29.80,West,270,0.0,0.0,37,0.00,,,0.00,WUHU216HW,2013-01-22 05:09:00,
2013-01-22 00:14:00,45.5,21.2,29.80,NW,315,0.0,0.0,38,0.00,,,0.00,WUHU216HW,2013-01-22 05:14:00,
2013-01-22 00:19:00,45.3,20.3,29.80,West,270,0.0,0.0,37,0.00,,,0.00,WUHU216HW,2013-01-22 05:19:00,
2013-01-22 00:24:00,45.3,20.3,29.80,NNE,23,0.0,0.0,37,0.00,,,0.00,WUHU216HW,2013-01-22 05:24:00,
2013-01-22 00:29:00,45.1,20.2,29.80,NNW,338,0.0,0.0,37,0.00,,,0.00,WUHU216HW,2013-01-22 05:29:00,
2013-01-22 00:34:00,45.1,20.2,29.80,West,270,0.0,0.0,37,0.00,,,0.00,WUHU216HW,2013-01-22 05:34:00,
2013-01-22 00:39:00,45.1,20.2,29.79,WNW,293,0.0,0.0,37,0.00,,,0.00,WUHU216HW,2013-01-22 05:39:00,
2013-01-22 00:45:00,44.9,20.0,29.79,NNW,338,0.0,0.0,37,0.00,,,0.00,WUHU216HW,2013-01-22 05:45:00,
2013-01-22 00:50:00,44.9,20.0,29.79,WNW,293,0.0,0.0,37,0.00,,,0.00,WUHU216HW,2013-01-22 05:50:00,
2013-01-22 00:55:00,44.7,19.9,29.79,NNW,338,0.0,0.0,37,0.00,,,0.00,WUHU216HW,2013-01-22 05:55:00,
2013-01-22 01:00:00,44.7,19.9,29.79,WNW,293,0.0,0.0,37,0.00,,,0.00,WUHU216HW,2013-01-22 06:00:00,
2013-01-22 01:10:00,44.7,19.9,29.79,NNW,338,0.0,0.0,37,0.00,,,0.00,WUHU216HW,2013-01-22 06:10:00,
2013-01-22 01:15:00,44.4,19.5,29.79,WNW,293,0.0,0.0,37,0.00,,,0.00,WUHU216HW,2013-01-22 06:15:00,
2013-01-22 01:20:00,44.2,19.4,29.79,NW,315,0.0,0.0,37,0.00,,,0.00,WUHU216HW,2013-01-22 06:20:00,
2013-01-22 01:25:00,43.8,19.2,29.79,WSW,248,0.0,0.0,37,0.00,,,0.00,WUHU216HW,2013-01-22 06:25:00,
2013-01-22 01:30:00,43.8,19.0,29.80,West,270,0.0,0.0,37,0.00,,,0.00,WUHU216HW,2013-01-22 06:30:00,
2013-01-22 01:35:00,43.5,18.7,29.81,NNW,338,0.0,0.0,37,0.00,,,0.00,WUHU216HW,2013-01-22 06:35:00,
2013-01-22 01:40:00,43.5,18.7,29.81,NNW,338,0.0,0.0,37,0.00,,,0.00,WUHU216HW,2013-01-22 06:40:00,
2013-01-22 01:45:00,43.5,19.4,29.81,West,270,0.0,0.0,38,0.00,,,0.00,WUHU216HW,2013-01-22 06:45:00,
2013-01-22 01:50:00,43.3,19.2,29.81,WNW,293,0.0,0.0,38,0.00,,,0.00,WUHU216HW,2013-01-22 06:50:00,
2013-01-22 01:55:00,43.1,19.1,29.81,WNW,293,0.0,0.0,38,0.00,,,0.00,WUHU216HW,2013-01-22 06:55:00,
2013-01-22 02:00:00,43.1,19.1,29.82,West,270,0.0,0.0,38,0.00,,,0.00,WUHU216HW,2013-01-22 07:00:00,
2013-01-22 02:06:00,43.1,19.1,29.82,WNW,293,0.0,0.0,38,0.00,,,0.00,WUHU216HW,2013-01-22 07:06:00,
2013-01-22 02:11:00,42.6,18.6,29.82,North,0,0.0,0.0,38,0.00,,,0.00,WUHU216HW,2013-01-22 07:11:00,
2013-01-22 02:16:00,42.6,19.2,29.82,WNW,293,0.0,0.0,39,0.00,,,0.00,WUHU216HW,2013-01-22 07:16:00,
2013-01-22 02:21:00,42.4,19.1,29.82,NNW,338,0.0,0.0,39,0.00,,,0.00,WUHU216HW,2013-01-22 07:21:00,
2013-01-22 02:26:00,42.4,19.1,29.82,NNW,338,0.0,0.0,39,0.00,,,0.00,WUHU216HW,2013-01-22 07:26:00,
2013-01-22 02:31:00,42.0,18.8,29.82,NNE,23,0.0,0.0,39,0.00,,,0.00,WUHU216HW,2013-01-22 07:31:00,
2013-01-22 02:36:00,42.0,19.4,29.82,NNE,23,0.0,0.0,40,0.00,,,0.00,WUHU216HW,2013-01-22 07:36:00,
2013-01-22 02:41:00,42.0,19.4,29.82,NNW,338,0.0,0.0,40,0.00,,,0.00,WUHU216HW,2013-01-22 07:41:00,
2013-01-22 02:46:00,42.0,19.4,29.82,North,0,0.0,0.0,40,0.00,,,0.00,WUHU216HW,2013-01-22 07:46:00,
2013-01-22 02:51:00,41.9,19.3,29.83,North,0,0.0,0.0,40,0.00,,,0.00,WUHU216HW,2013-01-22 07:51:00,
2013-01-22 02:56:00,41.7,19.6,29.83,NNW,338,0.0,0.0,41,0.00,,,0.00,WUHU216HW,2013-01-22 07:56:00,
2013-01-22 03:01:00,41.5,19.5,29.83,West,270,0.0,0.0,41,0.00,,,0.00,WUHU216HW,2013-01-22 08:01:00,
2013-01-22 03:07:00,41.1,18.6,29.83,NW,315,0.0,0.0,40,0.00,,,0.00,WUHU216HW,2013-01-22 08:07:00,
2013-01-22 03:12:00,41.0,18.5,29.83,NNW,338,0.0,0.0,40,0.00,,,0.00,WUHU216HW,2013-01-22 08:12:00,
2013-01-22 03:17:00,40.6,18.1,29.83,North,0,0.0,0.0,40,0.00,,,0.00,WUHU216HW,2013-01-22 08:17:00,
2013-01-22 03:22:00,40.2,17.8,29.83,West,270,0.0,0.0,40,0.00,,,0.00,WUHU216HW,2013-01-22 08:22:00,
2013-01-22 03:27:00,40.2,18.3,29.83,North,0,0.0,0.0,41,0.00,,,0.00,WUHU216HW,2013-01-22 08:27:00,
2013-01-22 03:32:00,40.2,18.3,29.83,North,0,0.0,0.0,41,0.00,,,0.00,WUHU216HW,2013-01-22 08:32:00,
2013-01-22 03:37:00,40.1,18.2,29.84,North,0,0.0,0.0,41,0.00,,,0.00,WUHU216HW,2013-01-22 08:37:00,
2013-01-22 03:42:00,40.1,18.2,29.84,NNE,23,0.0,0.0,41,0.00,,,0.00,WUHU216HW,2013-01-22 08:42:00,
2013-01-22 03:47:00,39.9,18.0,29.84,NW,315,0.0,0.0,41,0.00,,,0.00,WUHU216HW,2013-01-22 08:47:00,
2013-01-22 03:52:00,39.9,18.0,29.84,NW,315,0.0,0.0,41,0.00,,,0.00,WUHU216HW,2013-01-22 08:52:00,
2013-01-22 03:57:00,39.5,17.7,29.84,WNW,293,0.0,0.0,41,0.00,,,0.00,WUHU216HW,2013-01-22 08:57:00,
2013-01-22 04:02:00,39.3,17.5,29.83,WNW,293,0.0,0.0,41,0.00,,,0.00,WUHU216HW,2013-01-22 09:02:00,
2013-01-22 04:10:00,39.3,17.5,29.83,WNW,293,0.0,0.0,41,0.00,,,0.00,WUHU216HW,2013-01-22 09:10:00,
2013-01-22 04:15:00,38.8,17.0,29.83,NNW,338,0.0,0.0,41,0.00,,,0.00,WUHU216HW,2013-01-22 09:15:00,
2013-01-22 04:20:00,38.8,17.0,29.83,North,0,0.0,0.0,41,0.00,,,0.00,WUHU216HW,2013-01-22 09:20:00,
2013-01-22 04:25:00,38.8,17.0,29.84,NW,315,0.0,0.0,41,0.00,,,0.00,WUHU216HW,2013-01-22 09:25:00,
2013-01-22 04:30:00,38.4,16.7,29.84,NNW,338,0.0,0.0,41,0.00,,,0.00,WUHU216HW,2013-01-22 09:30:00,
2013-01-22 04:35:00,38.4,16.7,29.84,NNW,338,0.0,0.0,41,0.00,,,0.00,WUHU216HW,2013-01-22 09:35:00,
2013-01-22 04:40:00,38.3,16.5,29.84,North,0,0.0,0.0,41,0.00,,,0.00,WUHU216HW,2013-01-22 09:40:00,
2013-01-22 04:45:00,38.3,16.5,29.85,North,0,0.0,0.0,41,0.00,,,0.00,WUHU216HW,2013-01-22 09:45:00,
2013-01-22 04:50:00,38.1,16.4,29.85,NNW,338,0.0,0.0,41,0.00,,,0.00,WUHU216HW,2013-01-22 09:50:00,
2013-01-22 04:55:00,38.1,16.4,29.85,NNE,23,0.0,0.0,41,0.00,,,0.00,WUHU216HW,2013-01-22 09:55:00,
2013-01-22 05:00:00,37.9,16.2,29.86,NW,315,0.0,0.0,41,0.00,,,0.00,WUHU216HW,2013-01-22 10:00:00,
2013-01-22 05:05:00,37.7,16.1,29.86,NW,315,0.0,0.0,41,0.00,,,0.00,WUHU216HW,2013-01-22 10:05:00,
2013-01-22 05:10:00,37.4,15.7,29.86,NNE,23,0.0,0.0,41,0.00,,,0.00,WUHU216HW,2013-01-22 10:10:00,
2013-01-22 05:15:00,37.2,15.6,29.86,West,270,0.0,0.0,41,0.00,,,0.00,WUHU216HW,2013-01-22 10:15:00,
2013-01-22 05:20:00,37.2,15.6,29.86,North,0,0.0,0.0,41,0.00,,,0.00,WUHU216HW,2013-01-22 10:20:00,
2013-01-22 05:25:00,37.2,15.6,29.87,NNE,23,0.0,0.0,41,0.00,,,0.00,WUHU216HW,2013-01-22 10:25:00,
2013-01-22 05:30:00,37.2,15.6,29.87,North,0,0.0,0.0,41,0.00,,,0.00,WUHU216HW,2013-01-22 10:30:00,
2013-01-22 05:35:00,37.2,15.6,29.87,NNW,338,0.0,0.0,41,0.00,,,0.00,WUHU216HW,2013-01-22 10:35:00,
2013-01-22 05:40:00,36.8,15.2,29.87,North,0,0.0,0.0,41,0.00,,,0.00,WUHU216HW,2013-01-22 10:40:00,
2013-01-22 05:45:00,36.6,15.1,29.88,NNW,338,0.0,0.0,41,0.00,,,0.00,WUHU216HW,2013-01-22 10:45:00,
2013-01-22 05:50:00,36.6,15.1,29.88,NNW,338,0.0,0.0,41,0.00,,,0.00,WUHU216HW,2013-01-22 10:50:00,
2013-01-22 05:55:00,36.5,14.9,29.88,NNE,23,0.0,0.0,41,0.00,,,0.00,WUHU216HW,2013-01-22 10:55:00,
2013-01-22 06:00:00,36.6,15.1,29.88,NNW,338,0.0,0.0,41,0.00,,,0.00,WUHU216HW,2013-01-22 11:00:00,
2013-01-22 06:05:00,36.5,14.9,29.89,NNW,338,0.0,0.0,41,0.00,,,0.00,WUHU216HW,2013-01-22 11:05:00,
2013-01-22 06:10:00,36.3,14.8,29.89,NW,315,0.0,0.0,41,0.00,,,0.00,WUHU216HW,2013-01-22 11:10:00,
2013-01-22 06:15:00,35.9,14.6,29.90,North,0,0.0,0.0,41,0.00,,,0.00,WUHU216HW,2013-01-22 11:15:00,
2013-01-22 06:20:00,35.7,14.3,29.89,NNW,338,0.0,0.0,41,0.00,,,0.00,WUHU216HW,2013-01-22 11:20:00,
2013-01-22 06:25:00,35.7,14.3,29.89,WNW,293,0.0,0.0,41,0.00,,,0.00,WUHU216HW,2013-01-22 11:25:00,
2013-01-22 06:30:00,35.4,13.9,29.90,WNW,293,0.0,0.0,41,0.00,,,0.00,WUHU216HW,2013-01-22 11:30:00,
2013-01-22 06:35:00,35.4,13.9,29.90,WNW,293,0.0,0.0,41,0.00,,,0.00,WUHU216HW,2013-01-22 11:35:00,
2013-01-22 06:40:00,35.2,13.8,29.91,West,270,0.0,0.0,41,0.00,,,0.00,WUHU216HW,2013-01-22 11:40:00,
2013-01-22 06:45:00,35.2,13.8,29.90,NNE,23,0.0,0.0,41,0.00,,,0.00,WUHU216HW,2013-01-22 11:45:00,
2013-01-22 06:50:00,35.4,13.9,29.91,NNW,338,0.0,0.0,41,0.00,,,0.00,WUHU216HW,2013-01-22 11:50:00,
2013-01-22 06:55:00,35.4,13.9,29.92,NNW,338,0.0,0.0,41,0.00,,,0.00,WUHU216HW,2013-01-22 11:55:00,
2013-01-22 07:00:00,35.2,13.8,29.91,WNW,293,0.0,0.0,41,0.00,,,0.00,WUHU216HW,2013-01-22 12:00:00,
2013-01-22 07:05:00,35.2,13.8,29.92,WNW,293,0.0,0.0,41,0.00,,,0.00,WUHU216HW,2013-01-22 12:05:00,
2013-01-22 07:10:00,34.8,14.0,29.92,NW,315,0.0,0.0,42,0.00,,,0.00,WUHU216HW,2013-01-22 12:10:00,
2013-01-22 07:15:00,34.8,14.0,29.91,NW,315,0.0,0.0,42,0.00,,,0.00,WUHU216HW,2013-01-22 12:15:00,
2013-01-22 07:20:00,34.8,14.0,29.92,NNE,23,0.0,0.0,42,0.00,,,0.00,WUHU216HW,2013-01-22 12:20:00,
2013-01-22 07:25:00,35.2,14.3,29.92,NE,45,0.0,0.0,43,0.00,,,0.00,WUHU216HW,2013-01-22 12:25:00,
2013-01-22 07:30:00,35.4,15.0,29.93,NE,45,0.0,0.0,43,0.00,,,0.00,WUHU216HW,2013-01-22 12:30:00,
2013-01-22 07:35:00,35.4,15.0,29.93,NE,45,0.0,0.0,43,0.00,,,0.00,WUHU216HW,2013-01-22 12:35:00,
2013-01-22 07:40:00,35.4,15.0,29.93,NE,45,0.0,0.0,43,0.00,,,0.00,WUHU216HW,2013-01-22 12:40:00,
2013-01-22 07:45:00,35.2,15.3,29.94,NE,45,0.0,0.0,44,0.00,,,0.00,WUHU216HW,2013-01-22 12:45:00,
2013-01-22 07:50:00,34.8,15.0,29.93,NE,45,0.0,0.0,44,0.00,,,0.00,WUHU216HW,2013-01-22 12:50:00,
2013-01-22 07:55:00,34.8,15.5,29.93,NE,45,0.0,0.0,45,0.00,,,0.00,WUHU216HW,2013-01-22 12:55:00,
2013-01-22 08:00:00,34.8,15.5,29.94,NE,45,0.0,0.0,45,0.00,,,0.00,WUHU216HW,2013-01-22 13:00:00,
2013-01-22 08:05:00,35.2,15.9,29.94,NE,45,0.0,0.0,45,0.00,,,0.00,WUHU216HW,2013-01-22 13:05:00,
2013-01-22 08:10:00,35.2,16.4,29.95,NE,45,0.0,0.0,46,0.00,,,0.00,WUHU216HW,2013-01-22 13:10:00,
2013-01-22 08:15:00,35.2,16.4,29.95,NE,45,0.0,0.0,46,0.00,,,0.00,WUHU216HW,2013-01-22 13:15:00,
2013-01-22 08:20:00,35.4,16.5,29.95,NNE,23,0.0,0.0,46,0.00,,,0.00,WUHU216HW,2013-01-22 13:20:00,
2013-01-22 08:25:00,35.4,16.0,29.95,North,0,0.0,0.0,45,0.00,,,0.00,WUHU216HW,2013-01-22 13:25:00,
2013-01-22 08:30:00,35.2,15.9,29.95,North,0,0.0,0.0,45,0.00,,,0.00,WUHU216HW,2013-01-22 13:30:00,
2013-01-22 08:35:00,35.2,15.9,29.95,North,0,0.0,0.0,45,0.00,,,0.00,WUHU216HW,2013-01-22 13:35:00,
2013-01-22 08:40:00,35.4,16.0,29.95,North,0,0.0,0.0,45,0.00,,,0.00,WUHU216HW,2013-01-22 13:40:00,
2013-01-22 08:45:00,35.7,16.4,29.96,North,0,0.0,0.0,45,0.00,,,0.00,WUHU216HW,2013-01-22 13:45:00,
2013-01-22 08:50:00,35.6,16.2,29.96,North,0,0.0,0.0,45,0.00,,,0.00,WUHU216HW,2013-01-22 13:50:00,
2013-01-22 08:55:00,35.4,16.0,29.96,North,0,0.0,0.0,45,0.00,,,0.00,WUHU216HW,2013-01-22 13:55:00,
2013-01-22 09:00:00,35.4,16.0,29.96,NE,45,0.0,0.0,45,0.00,,,0.00,WUHU216HW,2013-01-22 14:00:00,
2013-01-22 09:05:00,35.7,15.8,29.97,North,0,0.0,0.0,44,0.00,,,0.00,WUHU216HW,2013-01-22 14:05:00,
2013-01-22 09:10:00,35.7,15.8,29.98,North,0,0.0,0.0,44,0.00,,,0.00,WUHU216HW,2013-01-22 14:10:00,
2013-01-22 09:15:00,35.7,15.8,29.98,NW,315,0.0,0.0,44,0.00,,,0.00,WUHU216HW,2013-01-22 14:15:00,
2013-01-22 09:20:00,35.7,15.3,29.98,NNW,338,0.0,0.0,43,0.00,,,0.00,WUHU216HW,2013-01-22 14:20:00,
2013-01-22 09:25:00,35.7,15.3,29.98,NNW,338,0.0,0.0,43,0.00,,,0.00,WUHU216HW,2013-01-22 14:25:00,
2013-01-22 09:30:00,35.7,15.3,29.98,NNW,338,0.0,0.0,43,0.00,,,0.00,WUHU216HW,2013-01-22 14:30:00,
2013-01-22 09:35:00,35.7,14.8,29.99,WNW,293,0.0,0.0,42,0.00,,,0.00,WUHU216HW,2013-01-22 14:35:00,
2013-01-22 09:40:00,35.7,14.8,29.99,NNW,338,0.0,0.0,42,0.00,,,0.00,WUHU216HW,2013-01-22 14:40:00,
2013-01-22 09:45:00,36.1,15.6,29.99,North,0,0.0,0.0,43,0.00,,,0.00,WUHU216HW,2013-01-22 14:45:00,
2013-01-22 09:50:00,36.3,15.3,29.99,NNW,338,0.0,0.0,42,0.00,,,0.00,WUHU216HW,2013-01-22 14:50:00,
2013-01-22 09:55:00,36.3,15.3,29.99,NNW,338,0.0,0.0,42,0.00,,,0.00,WUHU216HW,2013-01-22 14:55:00,
2013-01-22 10:00:00,36.6,15.6,29.99,North,0,0.0,0.0,42,0.00,,,0.00,WUHU216HW,2013-01-22 15:00:00,
2013-01-22 10:05:00,36.8,15.8,30.00,ENE,68,0.0,0.0,42,0.00,,,0.00,WUHU216HW,2013-01-22 15:05:00,
2013-01-22 10:10:00,37.2,15.6,30.00,NW,315,0.0,0.0,41,0.00,,,0.00,WUHU216HW,2013-01-22 15:10:00,
2013-01-22 10:15:00,37.2,15.6,30.00,NNW,338,0.0,0.0,41,0.00,,,0.00,WUHU216HW,2013-01-22 15:15:00,
2013-01-22 10:20:00,37.4,15.2,30.00,WNW,293,0.0,0.0,40,0.00,,,0.00,WUHU216HW,2013-01-22 15:20:00,
2013-01-22 10:25:00,37.7,15.5,30.00,ENE,68,0.0,0.0,40,0.00,,,0.00,WUHU216HW,2013-01-22 15:25:00,
2013-01-22 10:30:00,37.7,14.2,30.00,NE,45,0.0,0.0,38,0.00,,,0.00,WUHU216HW,2013-01-22 15:30:00,
2013-01-22 10:35:00,37.9,15.0,30.00,West,270,0.0,0.0,39,0.00,,,0.00,WUHU216HW,2013-01-22 15:35:00,
2013-01-22 10:40:00,38.1,13.9,30.00,North,0,0.0,0.0,37,0.00,,,0.00,WUHU216HW,2013-01-22 15:40:00,
2013-01-22 10:45:00,37.9,13.8,30.00,West,270,0.0,0.0,37,0.00,,,0.00,WUHU216HW,2013-01-22 15:45:00,
2013-01-22 10:50:00,37.9,13.1,30.01,NW,315,0.0,0.0,36,0.00,,,0.00,WUHU216HW,2013-01-22 15:50:00,
2013-01-22 10:55:00,37.9,13.1,30.01,NNE,23,0.0,0.0,36,0.00,,,0.00,WUHU216HW,2013-01-22 15:55:00,
2013-01-22 11:00:00,38.1,13.3,30.01,North,0,0.0,0.0,36,0.00,,,0.00,WUHU216HW,2013-01-22 16:00:00,
2013-01-22 11:05:00,38.3,13.4,30.01,NNW,338,0.0,0.0,36,0.00,,,0.00,WUHU216HW,2013-01-22 16:05:00,
2013-01-22 11:10:00,38.4,13.6,30.01,NW,315,0.0,0.0,36,0.00,,,0.00,WUHU216HW,2013-01-22 16:10:00,
2013-01-22 11:15:00,38.8,13.9,30.01,NNE,23,0.0,0.0,36,0.00,,,0.00,WUHU216HW,2013-01-22 16:15:00,
2013-01-22 11:20:00,39.0,13.4,30.00,North,0,0.0,0.0,35,0.00,,,0.00,WUHU216HW,2013-01-22 16:20:00,
2013-01-22 11:25:00,39.0,13.4,30.00,North,0,0.0,0.0,35,0.00,,,0.00,WUHU216HW,2013-01-22 16:25:00,
2013-01-22 11:30:00,39.0,13.4,30.00,NNE,23,0.0,0.0,35,0.00,,,0.00,WUHU216HW,2013-01-22 16:30:00,
2013-01-22 11:35:00,39.3,13.8,30.00,North,0,0.0,0.0,35,0.00,,,0.00,WUHU216HW,2013-01-22 16:35:00,
2013-01-22 11:40:00,39.5,13.9,30.00,NW,315,0.0,0.0,35,0.00,,,0.00,WUHU216HW,2013-01-22 16:40:00,
2013-01-22 11:45:00,39.7,14.1,30.00,North,0,0.0,0.0,35,0.00,,,0.00,WUHU216HW,2013-01-22 16:45:00,
2013-01-22 11:50:00,39.9,13.6,30.00,West,270,0.0,0.0,34,0.00,,,0.00,WUHU216HW,2013-01-22 16:50:00,
2013-01-22 11:55:00,39.9,13.6,30.00,WNW,293,0.0,0.0,34,0.00,,,0.00,WUHU216HW,2013-01-22 16:55:00,
2013-01-22 12:00:00,40.2,14.6,29.99,NNW,338,0.0,0.0,35,0.00,,,0.00,WUHU216HW,2013-01-22 17:00:00,
2013-01-22 12:05:00,40.6,14.9,29.99,NNW,338,0.0,0.0,35,0.00,,,0.00,WUHU216HW,2013-01-22 17:05:00,
2013-01-22 12:10:00,40.8,14.4,29.99,NE,45,0.0,0.0,34,0.00,,,0.00,WUHU216HW,2013-01-22 17:10:00,
2013-01-22 12:15:00,41.0,14.6,29.99,NW,315,0.0,0.0,34,0.00,,,0.00,WUHU216HW,2013-01-22 17:15:00,
2013-01-22 12:20:00,40.8,13.8,29.99,NNW,338,0.0,0.0,33,0.00,,,0.00,WUHU216HW,2013-01-22 17:20:00,
2013-01-22 12:25:00,40.8,14.4,29.98,NW,315,0.0,0.0,34,0.00,,,0.00,WUHU216HW,2013-01-22 17:25:00,
2013-01-22 12:30:00,41.1,14.1,29.98,NNW,338,0.0,0.0,33,0.00,,,0.00,WUHU216HW,2013-01-22 17:30:00,
2013-01-22 12:35:00,40.8,13.8,29.99,NNW,338,0.0,0.0,33,0.00,,,0.00,WUHU216HW,2013-01-22 17:35:00,
2013-01-22 12:40:00,40.8,13.8,29.98,North,0,0.0,0.0,33,0.00,,,0.00,WUHU216HW,2013-01-22 17:40:00,
2013-01-22 12:45:00,41.1,14.1,29.98,NNW,338,0.0,0.0,33,0.00,,,0.00,WUHU216HW,2013-01-22 17:45:00,
2013-01-22 12:50:00,41.5,14.3,29.97,North,0,0.0,0.0,33,0.00,,,0.00,WUHU216HW,2013-01-22 17:50:00,
2013-01-22 12:55:00,41.3,12.9,29.98,North,0,0.0,0.0,31,0.00,,,0.00,WUHU216HW,2013-01-22 17:55:00,
2013-01-22 13:00:00,41.3,13.6,29.97,NNW,338,0.0,0.0,32,0.00,,,0.00,WUHU216HW,2013-01-22 18:00:00,
2013-01-22 13:05:00,41.5,13.1,29.97,North,0,0.0,0.0,31,0.00,,,0.00,WUHU216HW,2013-01-22 18:05:00,
2013-01-22 13:10:00,41.7,13.3,29.97,WSW,248,0.0,0.0,31,0.00,,,0.00,WUHU216HW,2013-01-22 18:10:00,
2013-01-22 13:15:00,41.7,13.2,29.96,NE,45,0.0,0.0,31,0.00,,,0.00,WUHU216HW,2013-01-22 18:15:00,
2013-01-22 13:20:00,41.7,12.5,29.96,NNW,338,0.0,0.0,30,0.00,,,0.00,WUHU216HW,2013-01-22 18:20:00,
2013-01-22 13:25:00,41.7,13.2,29.96,WSW,248,0.0,0.0,31,0.00,,,0.00,WUHU216HW,2013-01-22 18:25:00,
2013-01-22 13:30:00,41.9,12.7,29.96,NNW,338,0.0,0.0,30,0.00,,,0.00,WUHU216HW,2013-01-22 18:30:00,
2013-01-22 13:35:00,42.0,12.8,29.96,North,0,0.0,0.0,30,0.00,,,0.00,WUHU216HW,2013-01-22 18:35:00,
2013-01-22 13:40:00,42.4,13.8,29.96,North,0,0.0,0.0,31,0.00,,,0.00,WUHU216HW,2013-01-22 18:40:00,
2013-01-22 13:45:00,42.9,14.2,29.96,NW,315,0.0,0.0,31,0.00,,,0.00,WUHU216HW,2013-01-22 18:45:00,
2013-01-22 13:50:00,43.1,13.6,29.96,West,270,0.0,0.0,30,0.00,,,0.00,WUHU216HW,2013-01-22 18:50:00,
2013-01-22 13:55:00,43.1,13.7,29.95,NNW,338,0.0,0.0,30,0.00,,,0.00,WUHU216HW,2013-01-22 18:55:00,
2013-01-22 14:00:00,42.9,13.6,29.95,WNW,293,0.0,0.0,30,0.00,,,0.00,WUHU216HW,2013-01-22 19:00:00,
2013-01-22 14:05:00,43.1,13.7,29.95,WSW,248,0.0,0.0,30,0.00,,,0.00,WUHU216HW,2013-01-22 19:05:00,
2013-01-22 14:10:00,43.3,11.9,29.96,WNW,293,0.0,0.0,28,0.00,,,0.00,WUHU216HW,2013-01-22 19:10:00,
2013-01-22 14:15:00,42.9,11.8,29.96,NW,315,0.0,0.0,28,0.00,,,0.00,WUHU216HW,2013-01-22 19:15:00,
2013-01-22 14:20:00,43.1,11.9,29.96,NNE,23,0.0,0.0,28,0.00,,,0.00,WUHU216HW,2013-01-22 19:20:00,
2013-01-22 14:25:00,43.3,13.9,29.97,NNE,23,0.0,0.0,30,0.00,,,0.00,WUHU216HW,2013-01-22 19:25:00,
2013-01-22 14:30:00,43.5,13.2,29.96,North,0,0.0,0.0,29,0.00,,,0.00,WUHU216HW,2013-01-22 19:30:00,
2013-01-22 14:35:00,43.5,13.2,29.96,NNW,338,0.0,0.0,29,0.00,,,0.00,WUHU216HW,2013-01-22 19:35:00,
2013-01-22 14:40:00,43.5,13.2,29.96,WNW,293,0.0,0.0,29,0.00,,,0.00,WUHU216HW,2013-01-22 19:40:00,
2013-01-22 14:45:00,43.3,12.1,29.95,WNW,293,0.0,0.0,28,0.00,,,0.00,WUHU216HW,2013-01-22 19:45:00,
2013-01-22 14:50:00,43.3,10.3,29.96,WSW,248,0.0,0.0,26,0.00,,,0.00,WUHU216HW,2013-01-22 19:50:00,
2013-01-22 14:55:00,43.1,10.0,29.96,NNW,338,0.0,0.0,27,0.00,,,0.00,WUHU216HW,2013-01-22 19:55:00,
2013-01-22 15:00:00,42.9,10.9,29.96,NW,315,0.0,0.0,27,0.00,,,0.00,WUHU216HW,2013-01-22 20:00:00,
2013-01-22 15:05:00,42.9,10.9,29.97,NNW,338,0.0,0.0,27,0.00,,,0.00,WUHU216HW,2013-01-22 20:05:00,
2013-01-22 15:10:00,43.3,10.3,29.97,WNW,293,0.0,0.0,27,0.00,,,0.00,WUHU216HW,2013-01-22 20:10:00,
2013-01-22 15:15:00,43.3,11.2,29.97,NNW,338,0.0,1.3,27,0.00,,,0.00,WUHU216HW,2013-01-22 20:15:00,
2013-01-22 15:20:00,43.5,11.4,29.96,WNW,293,0.0,1.3,27,0.00,,,0.00,WUHU216HW,2013-01-22 20:20:00,
2013-01-22 15:25:00,43.5,11.4,29.97,NW,315,0.0,0.0,27,0.00,,,0.00,WUHU216HW,2013-01-22 20:25:00,
2013-01-22 15:30:00,43.7,11.5,29.96,SW,225,0.0,0.0,27,0.00,,,0.00,WUHU216HW,2013-01-22 20:30:00,
2013-01-22 15:35:00,43.8,11.7,29.96,WNW,293,0.0,0.0,27,0.00,,,0.00,WUHU216HW,2013-01-22 20:35:00,
2013-01-22 15:40:00,43.8,11.7,29.96,WSW,248,0.0,0.0,27,0.00,,,0.00,WUHU216HW,2013-01-22 20:40:00,
2013-01-22 15:45:00,44.0,11.8,29.96,SW,225,0.0,0.0,27,0.00,,,0.00,WUHU216HW,2013-01-22 20:45:00,
2013-01-22 15:50:00,44.2,13.8,29.95,West,270,0.0,0.0,29,0.00,,,0.00,WUHU216HW,2013-01-22 20:50:00,
2013-01-22 15:55:00,44.4,14.0,29.95,South,180,0.0,0.0,29,0.00,,,0.00,WUHU216HW,2013-01-22 20:55:00,
2013-01-22 16:00:00,44.7,14.3,29.96,ENE,68,0.0,0.0,29,0.00,,,0.00,WUHU216HW,2013-01-22 21:00:00,
2013-01-22 16:05:00,44.7,14.3,29.96,NW,315,0.0,0.0,29,0.00,,,0.00,WUHU216HW,2013-01-22 21:05:00,
2013-01-22 16:10:00,44.4,14.0,29.96,West,270,0.0,0.0,29,0.00,,,0.00,WUHU216HW,2013-01-22 21:10:00,
2013-01-22 16:15:00,44.2,12.0,29.96,West,270,0.0,0.0,27,0.00,,,0.00,WUHU216HW,2013-01-22 21:15:00,
2013-01-22 16:20:00,43.8,11.7,29.96,West,270,0.0,0.0,27,0.00,,,0.00,WUHU216HW,2013-01-22 21:20:00,
2013-01-22 16:25:00,43.7,10.6,29.97,WNW,293,0.0,0.0,26,0.00,,,0.00,WUHU216HW,2013-01-22 21:25:00,
2013-01-22 16:30:00,43.5,10.5,29.96,NW,315,0.0,0.0,26,0.00,,,0.00,WUHU216HW,2013-01-22 21:30:00,
2013-01-22 16:31:00,43.5,10.5,29.97,WSW,248,0.0,0.0,26,0.00,,,0.00,WUHU216HW,2013-01-22 21:31:00,
2013-01-22 16:36:00,43.3,10.3,29.97,NW,315,0.0,0.0,26,0.00,,,0.00,WUHU216HW,2013-01-22 21:36:00,
2013-01-22 16:41:00,42.9,9.1,29.97,West,270,0.0,0.0,25,0.00,,,0.00,WUHU216HW,2013-01-22 21:41:00,
2013-01-22 16:46:00,42.6,8.8,29.97,NW,315,0.0,0.0,25,0.00,,,0.00,WUHU216HW,2013-01-22 21:46:00,
2013-01-22 16:51:00,42.6,8.8,29.97,NW,315,0.0,0.0,25,0.00,,,0.00,WUHU216HW,2013-01-22 21:51:00,
2013-01-22 16:56:00,42.4,8.6,29.97,NNW,338,0.0,0.0,25,0.00,,,0.00,WUHU216HW,2013-01-22 21:56:00,
2013-01-22 17:02:00,42.0,8.3,29.97,WNW,293,0.0,0.0,25,0.00,,,0.00,WUHU216HW,2013-01-22 22:02:00,
2013-01-22 17:07:00,41.9,8.2,29.96,NW,315,0.0,0.0,25,0.00,,,0.00,WUHU216HW,2013-01-22 22:07:00,
2013-01-22 17:12:00,41.7,8.0,29.96,WSW,248,0.0,0.0,25,0.00,,,0.00,WUHU216HW,2013-01-22 22:12:00,
2013-01-22 17:17:00,41.7,8.0,29.96,WNW,293,0.0,0.0,25,0.00,,,0.00,WUHU216HW,2013-01-22 22:17:00,
2013-01-22 17:22:00,41.5,7.9,29.97,West,270,0.0,0.0,25,0.00,,,0.00,WUHU216HW,2013-01-22 22:22:00,
2013-01-22 17:27:00,41.3,7.8,29.97,West,270,0.0,0.0,25,0.00,,,0.00,WUHU216HW,2013-01-22 22:27:00,
2013-01-22 17:32:00,41.1,8.5,29.97,WNW,293,0.0,0.0,26,0.00,,,0.00,WUHU216HW,2013-01-22 22:32:00,
2013-01-22 17:37:00,41.1,8.5,29.97,NW,315,0.0,0.0,26,0.00,,,0.00,WUHU216HW,2013-01-22 22:37:00,
2013-01-22 17:42:00,41.1,8.5,29.97,NNW,338,0.0,0.0,26,0.00,,,0.00,WUHU216HW,2013-01-22 22:42:00,
2013-01-22 17:47:00,41.0,8.4,29.97,West,270,0.0,0.0,26,0.00,,,0.00,WUHU216HW,2013-01-22 22:47:00,
2013-01-22 17:52:00,40.8,9.1,29.97,WNW,293,0.0,0.0,27,0.00,,,0.00,WUHU216HW,2013-01-22 22:52:00,
2013-01-22 17:57:00,40.8,9.1,29.97,WNW,293,0.0,0.0,27,0.00,,,0.00,WUHU216HW,2013-01-22 22:57:00,
2013-01-22 18:02:00,40.8,9.1,29.98,NW,315,0.0,0.0,27,0.00,,,0.00,WUHU216HW,2013-01-22 23:02:00,
2013-01-22 18:07:00,40.8,10.0,29.98,NW,315,0.0,0.0,28,0.00,,,0.00,WUHU216HW,2013-01-22 23:07:00,
2013-01-22 18:12:00,40.8,10.0,29.98,NW,315,0.0,0.0,28,0.00,,,0.00,WUHU216HW,2013-01-22 23:12:00,
2013-01-22 18:17:00,40.8,10.9,29.98,WNW,293,0.0,0.0,29,0.00,,,0.00,WUHU216HW,2013-01-22 23:17:00,
2013-01-22 18:22:00,40.8,10.9,29.98,WNW,293,0.0,0.0,29,0.00,,,0.00,WUHU216HW,2013-01-22 23:22:00,
2013-01-22 18:27:00,40.8,12.5,29.98,WNW,293,0.0,0.0,31,0.00,,,0.00,WUHU216HW,2013-01-22 23:27:00,
2013-01-22 18:32:00,40.8,12.5,29.99,WNW,293,0.0,0.0,31,0.00,,,0.00,WUHU216HW,2013-01-22 23:32:00,
2013-01-22 18:37:00,40.6,12.9,29.99,WNW,293,0.0,0.0,32,0.00,,,0.00,WUHU216HW,2013-01-22 23:37:00,
2013-01-22 18:42:00,40.2,13.3,29.99,WNW,293,0.0,0.0,33,0.00,,,0.00,WUHU216HW,2013-01-22 23:42:00,
2013-01-22 18:47:00,40.1,13.1,29.99,WNW,293,0.0,0.0,33,0.00,,,0.00,WUHU216HW,2013-01-22 23:47:00,
2013-01-22 18:52:00,39.9,12.9,29.99,WNW,293,0.0,0.0,33,0.00,,,0.00,WUHU216HW,2013-01-22 23:52:00,
2013-01-22 18:57:00,39.9,13.4,29.99,WNW,293,0.0,0.0,34,0.00,,,0.00,WUHU216HW,2013-01-22 23:57:00,
2013-01-22 19:02:00,39.7,13.4,29.99,WNW,293,0.0,0.0,34,0.00,,,0.00,WUHU216HW,2013-01-23 00:02:00,
2013-01-22 19:07:00,39.5,13.4,29.99,WNW,293,0.0,0.0,34,0.00,,,0.00,WUHU216HW,2013-01-23 00:07:00,
2013-01-22 19:12:00,39.3,13.1,30.00,WNW,293,0.0,0.0,34,0.00,,,0.00,WUHU216HW,2013-01-23 00:12:00,
2013-01-22 19:17:00,39.3,13.1,30.00,WNW,293,0.0,0.0,34,0.00,,,0.00,WUHU216HW,2013-01-23 00:17:00,
2013-01-22 19:22:00,39.0,12.8,29.99,NW,315,0.0,0.0,34,0.00,,,0.00,WUHU216HW,2013-01-23 00:22:00,
2013-01-22 19:27:00,38.6,12.5,29.98,NW,315,0.0,0.0,34,0.00,,,0.00,WUHU216HW,2013-01-23 00:27:00,
2013-01-22 19:32:00,38.4,12.9,29.98,NW,315,0.0,0.0,35,0.00,,,0.00,WUHU216HW,2013-01-23 00:32:00,
2013-01-22 19:37:00,38.1,13.3,29.98,NW,315,0.0,0.0,36,0.00,,,0.00,WUHU216HW,2013-01-23 00:37:00,
2013-01-22 19:42:00,37.9,13.1,29.99,NW,315,0.0,0.0,36,0.00,,,0.00,WUHU216HW,2013-01-23 00:42:00,
2013-01-22 19:47:00,37.7,13.6,29.99,NW,315,0.0,0.0,37,0.00,,,0.00,WUHU216HW,2013-01-23 00:47:00,
2013-01-22 19:52:00,37.5,13.4,29.99,NW,315,0.0,0.0,37,0.00,,,0.00,WUHU216HW,2013-01-23 00:52:00,
2013-01-22 19:57:00,37.5,14.1,29.98,NW,315,0.0,0.0,38,0.00,,,0.00,WUHU216HW,2013-01-23 00:57:00,
2013-01-22 20:02:00,37.5,14.1,29.98,NW,315,0.0,0.0,38,0.00,,,0.00,WUHU216HW,2013-01-23 01:02:00,
2013-01-22 20:07:00,37.5,14.1,29.99,NW,315,0.0,0.0,38,0.00,,,0.00,WUHU216HW,2013-01-23 01:07:00,
2013-01-22 20:12:00,37.5,14.1,29.99,NW,315,0.0,0.0,38,0.00,,,0.00,WUHU216HW,2013-01-23 01:12:00,
2013-01-22 20:17:00,37.2,14.4,29.99,NW,315,0.0,0.0,39,0.00,,,0.00,WUHU216HW,2013-01-23 01:17:00,
2013-01-22 20:22:00,37.2,14.4,29.99,NW,315,0.0,0.0,39,0.00,,,0.00,WUHU216HW,2013-01-23 01:22:00,
2013-01-22 20:27:00,36.6,14.6,29.99,NW,315,0.0,0.0,40,0.00,,,0.00,WUHU216HW,2013-01-23 01:27:00,
2013-01-22 20:32:00,36.6,14.6,30.00,NW,315,0.0,0.0,40,0.00,,,0.00,WUHU216HW,2013-01-23 01:32:00,
2013-01-22 20:37:00,36.5,14.4,30.00,NW,315,0.0,0.0,40,0.00,,,0.00,WUHU216HW,2013-01-23 01:37:00,
2013-01-22 20:42:00,36.3,14.2,30.00,NW,315,0.0,0.0,40,0.00,,,0.00,WUHU216HW,2013-01-23 01:42:00,
2013-01-22 20:48:00,36.3,14.8,30.00,NW,315,0.0,0.0,41,0.00,,,0.00,WUHU216HW,2013-01-23 01:48:00,
2013-01-22 20:53:00,36.3,14.8,30.00,NW,315,0.0,0.0,41,0.00,,,0.00,WUHU216HW,2013-01-23 01:53:00,
2013-01-22 20:58:00,36.3,14.8,30.01,NW,315,0.0,0.0,41,0.00,,,0.00,WUHU216HW,2013-01-23 01:58:00,
2013-01-22 21:03:00,36.3,14.8,30.00,NW,315,0.0,0.0,41,0.00,,,0.00,WUHU216HW,2013-01-23 02:03:00,
2013-01-22 21:08:00,36.1,15.1,30.01,NW,315,0.0,0.0,42,0.00,,,0.00,WUHU216HW,2013-01-23 02:08:00,
2013-01-22 21:13:00,35.9,15.0,30.01,NW,315,0.0,0.0,42,0.00,,,0.00,WUHU216HW,2013-01-23 02:13:00,
2013-01-22 21:18:00,35.7,14.8,30.01,NW,315,0.0,0.0,42,0.00,,,0.00,WUHU216HW,2013-01-23 02:18:00,
2013-01-22 21:23:00,35.7,14.8,30.01,NW,315,0.0,0.0,42,0.00,,,0.00,WUHU216HW,2013-01-23 02:23:00,
2013-01-22 21:28:00,35.4,14.5,30.01,NNW,338,0.0,0.0,42,0.00,,,0.00,WUHU216HW,2013-01-23 02:28:00,
2013-01-22 21:33:00,35.2,14.8,30.01,North,0,0.0,0.0,43,0.00,,,0.00,WUHU216HW,2013-01-23 02:33:00,
2013-01-22 21:38:00,35.2,14.8,30.01,North,0,0.0,0.0,43,0.00,,,0.00,WUHU216HW,2013-01-23 02:38:00,
2013-01-22 21:43:00,35.2,15.3,30.02,North,0,0.0,0.0,44,0.00,,,0.00,WUHU216HW,2013-01-23 02:43:00,
2013-01-22 21:48:00,35.4,15.0,30.02,North,0,0.0,0.0,43,0.00,,,0.00,WUHU216HW,2013-01-23 02:48:00,
2013-01-22 21:53:00,35.4,15.0,30.03,North,0,0.0,0.0,43,0.00,,,0.00,WUHU216HW,2013-01-23 02:53:00,
2013-01-22 21:58:00,35.4,15.5,30.03,North,0,0.0,0.0,44,0.00,,,0.00,WUHU216HW,2013-01-23 02:58:00,
2013-01-22 22:03:00,35.2,15.3,30.03,North,0,0.0,0.0,44,0.00,,,0.00,WUHU216HW,2013-01-23 03:03:00,
2013-01-22 22:08:00,35.0,15.3,30.03,North,0,0.0,0.0,44,0.00,,,0.00,WUHU216HW,2013-01-23 03:08:00,
2013-01-22 22:13:00,34.8,14.5,30.03,NNE,23,0.0,0.0,44,0.00,,,0.00,WUHU216HW,2013-01-23 03:13:00,
2013-01-22 22:18:00,34.7,14.3,30.03,NNW,338,0.0,0.0,43,0.00,,,0.00,WUHU216HW,2013-01-23 03:18:00,
2013-01-22 22:23:00,34.7,13.8,30.03,NNE,23,0.0,0.0,42,0.00,,,0.00,WUHU216HW,2013-01-23 03:23:00,
2013-01-22 22:28:00,34.7,13.8,30.03,NE,45,0.0,0.0,42,0.00,,,0.00,WUHU216HW,2013-01-23 03:28:00,
2013-01-22 22:33:00,34.8,13.4,30.03,NE,45,0.0,0.0,41,0.00,,,0.00,WUHU216HW,2013-01-23 03:33:00,
2013-01-22 22:38:00,34.8,13.4,30.03,NE,45,0.0,0.0,41,0.00,,,0.00,WUHU216HW,2013-01-23 03:38:00,
2013-01-22 22:43:00,35.0,13.6,30.03,NE,45,0.0,0.0,41,0.00,,,0.00,WUHU216HW,2013-01-23 03:43:00,
2013-01-22 22:48:00,34.8,13.4,30.03,NE,45,0.0,0.0,41,0.00,,,0.00,WUHU216HW,2013-01-23 03:48:00,
2013-01-22 22:53:00,34.8,13.4,30.03,NE,45,0.0,0.0,41,0.00,,,0.00,WUHU216HW,2013-01-23 03:53:00,
2013-01-22 22:58:00,34.8,13.4,30.03,NE,45,0.0,0.0,41,0.00,,,0.00,WUHU216HW,2013-01-23 03:58:00,
2013-01-22 23:03:00,34.8,13.4,30.03,NE,45,0.0,0.0,41,0.00,,,0.00,WUHU216HW,2013-01-23 04:03:00,
2013-01-22 23:08:00,34.7,12.8,30.03,NE,45,0.0,0.0,40,0.00,,,0.00,WUHU216HW,2013-01-23 04:08:00,
2013-01-22 23:13:00,34.7,12.8,30.03,NE,45,0.0,0.0,40,0.00,,,0.00,WUHU216HW,2013-01-23 04:13:00,
2013-01-22 23:18:00,34.5,13.1,30.03,NE,45,0.0,0.0,41,0.00,,,0.00,WUHU216HW,2013-01-23 04:18:00,
2013-01-22 23:23:00,34.5,13.1,30.03,NE,45,0.0,0.0,41,0.00,,,0.00,WUHU216HW,2013-01-23 04:23:00,
2013-01-22 23:28:00,34.3,13.1,30.03,NE,45,0.0,0.0,41,0.00,,,0.00,WUHU216HW,2013-01-23 04:28:00,
2013-01-22 23:33:00,34.3,13.5,30.04,NE,45,0.0,0.0,42,0.00,,,0.00,WUHU216HW,2013-01-23 04:33:00,
2013-01-22 23:38:00,34.3,13.5,30.03,NE,45,0.0,0.0,42,0.00,,,0.00,WUHU216HW,2013-01-23 04:38:00,
2013-01-22 23:43:00,34.3,13.5,30.04,NE,45,0.0,0.0,42,0.00,,,0.00,WUHU216HW,2013-01-23 04:43:00,
2013-01-22 23:48:00,34.1,13.3,30.04,NE,45,0.0,0.0,42,0.00,,,0.00,WUHU216HW,2013-01-23 04:48:00,
2013-01-22 23:53:00,33.9,13.1,30.03,NE,45,0.0,0.0,42,0.00,,,0.00,WUHU216HW,2013-01-23 04:53:00,
2013-01-22 23:58:00,33.8,13.5,30.03,NE,45,0.0,0.0,43,0.00,,,0.00,WUHU216HW,2013-01-23 04:58:00,